Time,TemperatureF,DewpointF,PressureIn,WindDirection,WindDirectionDegrees,WindSpeedMPH,WindSpeedGustMPH,Humidity,HourlyPrecipIn,Conditions,Clouds,dailyrainin,SolarRadiationWatts/m^2,SoftwareType,DateUTC
2013-04-04 00:02:00,55.0,38.0,-100.00,WNW,302,9.0,11.0,52,0.00,,,0.00,1.000000,,2013-04-04 07:02:00,
2013-04-04 00:12:00,55.0,38.0,-100.00,WNW,302,9.0,11.0,52,0.00,,,0.00,1.000000,,2013-04-04 07:12:00,
2013-04-04 00:21:00,55.0,38.0,-100.00,WNW,302,9.0,11.0,52,0.00,,,0.00,1.000000,,2013-04-04 07:21:00,
2013-04-04 00:32:00,55.0,38.0,-100.00,WNW,302,9.0,11.0,52,0.00,,,0.00,1.000000,,2013-04-04 07:32:00,
2013-04-04 00:52:00,52.0,37.0,-100.00,West,278,4.0,9.0,57,0.00,,,0.00,1.000000,,2013-04-04 07:52:00,
2013-04-04 01:02:00,52.0,37.0,-100.00,West,278,4.0,9.0,57,0.00,,,0.00,1.000000,,2013-04-04 08:02:00,
2013-04-04 01:12:00,52.0,37.0,-100.00,West,278,4.0,9.0,57,0.00,,,0.00,1.000000,,2013-04-04 08:12:00,
2013-04-04 01:22:00,52.0,37.0,-100.00,West,278,4.0,9.0,57,0.00,,,0.00,1.000000,,2013-04-04 08:22:00,
2013-04-04 01:32:00,52.0,37.0,-100.00,West,278,4.0,9.0,57,0.00,,,0.00,1.000000,,2013-04-04 08:32:00,
2013-04-04 01:52:00,51.0,39.0,-100.00,NW,323,0.0,0.0,63,0.00,,,0.00,1.000000,,2013-04-04 08:52:00,
2013-04-04 02:02:00,51.0,39.0,-100.00,NW,323,0.0,0.0,63,0.00,,,0.00,1.000000,,2013-04-04 09:02:00,
2013-04-04 02:12:00,51.0,39.0,-100.00,NW,323,0.0,0.0,63,0.00,,,0.00,1.000000,,2013-04-04 09:12:00,
2013-04-04 02:22:00,51.0,39.0,-100.00,NW,323,0.0,0.0,63,0.00,,,0.00,1.000000,,2013-04-04 09:22:00,
2013-04-04 02:32:00,51.0,39.0,-100.00,NW,323,0.0,0.0,63,0.00,,,0.00,1.000000,,2013-04-04 09:32:00,
2013-04-04 02:53:00,48.0,45.0,-100.00,SE,130,0.0,0.0,91,0.11,,,0.11,1.000000,,2013-04-04 09:53:00,
2013-04-04 03:03:00,48.0,45.0,-100.00,SE,130,0.0,0.0,91,0.11,,,0.11,1.000000,,2013-04-04 10:03:00,
2013-04-04 03:12:00,48.0,45.0,-100.00,SE,130,0.0,0.0,91,0.11,,,0.11,1.000000,,2013-04-04 10:12:00,
2013-04-04 03:23:00,48.0,45.0,-100.00,SE,130,0.0,0.0,91,0.11,,,0.11,1.000000,,2013-04-04 10:23:00,
2013-04-04 03:32:00,48.0,45.0,-100.00,SE,130,0.0,0.0,91,0.11,,,0.11,1.000000,,2013-04-04 10:32:00,
2013-04-04 03:53:00,47.0,46.0,-100.00,WNW,285,0.0,0.0,98,0.09,,,0.20,0.000000,,2013-04-04 10:53:00,
2013-04-04 04:02:00,47.0,46.0,-100.00,WNW,285,0.0,0.0,98,0.09,,,0.20,0.000000,,2013-04-04 11:02:00,
2013-04-04 04:12:00,47.0,46.0,-100.00,WNW,285,0.0,0.0,98,0.09,,,0.20,0.000000,,2013-04-04 11:12:00,
2013-04-04 04:22:00,47.0,46.0,-100.00,WNW,285,0.0,0.0,98,0.09,,,0.20,0.000000,,2013-04-04 11:22:00,
2013-04-04 04:32:00,47.0,46.0,-100.00,WNW,285,0.0,0.0,98,0.09,,,0.20,0.000000,,2013-04-04 11:32:00,
2013-04-04 05:02:00,49.0,49.0,-100.00,WNW,282,4.0,16.0,99,0.04,,,0.24,0.000000,,2013-04-04 12:02:00,
2013-04-04 05:12:00,49.0,49.0,-100.00,WNW,282,4.0,16.0,99,0.04,,,0.24,0.000000,,2013-04-04 12:12:00,
2013-04-04 05:22:00,49.0,49.0,-100.00,WNW,282,4.0,16.0,99,0.04,,,0.24,0.000000,,2013-04-04 12:22:00,
2013-04-04 05:32:00,49.0,49.0,-100.00,WNW,282,4.0,16.0,99,0.04,,,0.24,0.000000,,2013-04-04 12:32:00,
2013-04-04 05:52:00,49.0,49.0,-100.00,SSW,200,0.0,5.0,100,0.06,,,0.30,0.000000,,2013-04-04 12:52:00,
2013-04-04 06:02:00,49.0,49.0,-100.00,SSW,200,0.0,5.0,100,0.06,,,0.30,0.000000,,2013-04-04 13:02:00,
2013-04-04 06:12:00,49.0,49.0,-100.00,SSW,200,0.0,5.0,100,0.06,,,0.30,0.000000,,2013-04-04 13:12:00,
2013-04-04 06:22:00,49.0,49.0,-100.00,SSW,200,0.0,5.0,100,0.06,,,0.30,0.000000,,2013-04-04 13:22:00,
2013-04-04 06:32:00,49.0,49.0,-100.00,SSW,200,0.0,5.0,100,0.06,,,0.30,0.000000,,2013-04-04 13:32:00,
2013-04-04 06:53:00,49.0,49.0,-100.00,South,186,0.0,0.0,100,0.08,,,0.38,0.000000,,2013-04-04 13:53:00,
2013-04-04 07:02:00,49.0,49.0,-100.00,South,186,0.0,0.0,100,0.08,,,0.38,0.000000,,2013-04-04 14:02:00,
2013-04-04 07:12:00,49.0,49.0,-100.00,South,186,0.0,0.0,100,0.08,,,0.38,0.000000,,2013-04-04 14:12:00,
2013-04-04 07:22:00,49.0,49.0,-100.00,South,186,0.0,0.0,100,0.08,,,0.38,0.000000,,2013-04-04 14:22:00,
2013-04-04 07:32:00,49.0,49.0,-100.00,South,186,0.0,0.0,100,0.08,,,0.38,0.000000,,2013-04-04 14:32:00,
2013-04-04 07:33:00,51.0,51.0,-100.00,SSW,193,4.0,12.0,100,0.03,,,0.41,6.000000,,2013-04-04 14:33:00,
2013-04-04 07:53:00,51.0,51.0,-100.00,SSW,193,4.0,12.0,100,0.03,,,0.41,6.000000,,2013-04-04 14:53:00,
2013-04-04 08:02:00,51.0,51.0,-100.00,SSW,193,4.0,12.0,100,0.03,,,0.41,6.000000,,2013-04-04 15:02:00,
2013-04-04 08:12:00,51.0,51.0,-100.00,SSW,193,4.0,12.0,100,0.03,,,0.41,6.000000,,2013-04-04 15:12:00,
2013-04-04 08:22:00,51.0,51.0,-100.00,SSW,193,4.0,12.0,100,0.03,,,0.41,6.000000,,2013-04-04 15:22:00,
2013-04-04 08:53:00,51.0,51.0,-100.00,SSW,205,0.0,0.0,100,0.05,,,0.46,15.000000,,2013-04-04 15:53:00,
2013-04-04 09:03:00,51.0,51.0,-100.00,SSW,205,0.0,0.0,100,0.05,,,0.46,15.000000,,2013-04-04 16:03:00,
2013-04-04 09:12:00,51.0,51.0,-100.00,SSW,205,0.0,0.0,100,0.05,,,0.46,15.000000,,2013-04-04 16:12:00,
2013-04-04 09:23:00,51.0,51.0,-100.00,SSW,205,0.0,0.0,100,0.05,,,0.46,15.000000,,2013-04-04 16:23:00,
2013-04-04 09:32:00,51.0,51.0,-100.00,SSW,205,0.0,0.0,100,0.05,,,0.46,15.000000,,2013-04-04 16:32:00,
2013-04-04 09:53:00,52.0,52.0,-100.00,SW,228,0.0,0.0,100,0.09,,,0.55,57.000000,,2013-04-04 16:53:00,
2013-04-04 10:02:00,52.0,52.0,-100.00,SW,228,0.0,0.0,100,0.09,,,0.55,57.000000,,2013-04-04 17:02:00,
2013-04-04 10:13:00,52.0,52.0,-100.00,SW,228,0.0,0.0,100,0.09,,,0.55,57.000000,,2013-04-04 17:13:00,
2013-04-04 10:22:00,52.0,52.0,-100.00,SW,228,0.0,0.0,100,0.09,,,0.55,57.000000,,2013-04-04 17:22:00,
2013-04-04 10:32:00,52.0,52.0,-100.00,SW,228,0.0,0.0,100,0.09,,,0.55,57.000000,,2013-04-04 17:32:00,
2013-04-04 10:52:00,53.0,53.0,-100.00,WSW,248,0.0,0.0,100,0.01,,,0.56,136.000000,,2013-04-04 17:52:00,
2013-04-04 11:02:00,53.0,53.0,-100.00,WSW,248,0.0,0.0,100,0.01,,,0.56,136.000000,,2013-04-04 18:02:00,
2013-04-04 11:12:00,53.0,53.0,-100.00,WSW,248,0.0,0.0,100,0.01,,,0.56,136.000000,,2013-04-04 18:12:00,
2013-04-04 11:22:00,53.0,53.0,-100.00,WSW,248,0.0,0.0,100,0.01,,,0.56,136.000000,,2013-04-04 18:22:00,
2013-04-04 11:32:00,53.0,53.0,-100.00,WSW,248,0.0,0.0,100,0.01,,,0.56,136.000000,,2013-04-04 18:32:00,
2013-04-04 11:52:00,53.0,53.0,-100.00,WSW,241,5.0,22.0,100,0.01,,,0.57,188.000000,,2013-04-04 18:52:00,
2013-04-04 12:02:00,53.0,53.0,-100.00,WSW,241,5.0,22.0,100,0.01,,,0.57,188.000000,,2013-04-04 19:02:00,
2013-04-04 12:12:00,53.0,53.0,-100.00,WSW,241,5.0,22.0,100,0.01,,,0.57,188.000000,,2013-04-04 19:12:00,
2013-04-04 12:22:00,53.0,53.0,-100.00,WSW,241,5.0,22.0,100,0.01,,,0.57,188.000000,,2013-04-04 19:22:00,
2013-04-04 12:32:00,53.0,53.0,-100.00,WSW,241,5.0,22.0,100,0.01,,,0.57,188.000000,,2013-04-04 19:32:00,
2013-04-04 12:52:00,54.0,54.0,-100.00,West,264,12.0,22.0,100,0.00,,,0.57,287.000000,,2013-04-04 19:52:00,
2013-04-04 13:03:00,54.0,54.0,-100.00,West,264,12.0,22.0,100,0.00,,,0.57,287.000000,,2013-04-04 20:03:00,
2013-04-04 13:12:00,54.0,54.0,-100.00,West,264,12.0,22.0,100,0.00,,,0.57,287.000000,,2013-04-04 20:12:00,
2013-04-04 13:22:00,54.0,54.0,-100.00,West,264,12.0,22.0,100,0.00,,,0.57,287.000000,,2013-04-04 20:22:00,
2013-04-04 13:32:00,54.0,54.0,-100.00,West,264,12.0,22.0,100,0.00,,,0.57,287.000000,,2013-04-04 20:32:00,
2013-04-04 13:53:00,54.0,54.0,-100.00,West,260,0.0,24.0,100,0.00,,,0.57,293.000000,,2013-04-04 20:53:00,
2013-04-04 14:02:00,54.0,54.0,-100.00,West,260,0.0,24.0,100,0.00,,,0.57,293.000000,,2013-04-04 21:02:00,
2013-04-04 14:12:00,54.0,54.0,-100.00,West,260,0.0,24.0,100,0.00,,,0.57,293.000000,,2013-04-04 21:12:00,
2013-04-04 14:22:00,54.0,54.0,-100.00,West,260,0.0,24.0,100,0.00,,,0.57,293.000000,,2013-04-04 21:22:00,
2013-04-04 14:32:00,54.0,54.0,-100.00,West,260,0.0,24.0,100,0.00,,,0.57,293.000000,,2013-04-04 21:32:00,
2013-04-04 14:53:00,54.0,54.0,-100.00,WSW,256,0.0,0.0,100,0.00,,,0.57,290.000000,,2013-04-04 21:53:00,
2013-04-04 15:03:00,54.0,54.0,-100.00,WSW,256,0.0,0.0,100,0.00,,,0.57,290.000000,,2013-04-04 22:03:00,
2013-04-04 15:12:00,54.0,54.0,-100.00,WSW,256,0.0,0.0,100,0.00,,,0.57,290.000000,,2013-04-04 22:12:00,
2013-04-04 15:22:00,54.0,54.0,-100.00,WSW,256,0.0,0.0,100,0.00,,,0.57,290.000000,,2013-04-04 22:22:00,
2013-04-04 15:32:00,54.0,54.0,-100.00,WSW,256,0.0,0.0,100,0.00,,,0.57,290.000000,,2013-04-04 22:32:00,
2013-04-04 15:53:00,53.0,53.0,-100.00,WSW,256,0.0,0.0,100,0.00,,,0.57,179.000000,,2013-04-04 22:53:00,
2013-04-04 16:02:00,53.0,53.0,-100.00,WSW,256,0.0,0.0,100,0.00,,,0.57,179.000000,,2013-04-04 23:02:00,
2013-04-04 16:12:00,53.0,53.0,-100.00,WSW,256,0.0,0.0,100,0.00,,,0.57,179.000000,,2013-04-04 23:12:00,
2013-04-04 16:22:00,53.0,53.0,-100.00,WSW,256,0.0,0.0,100,0.00,,,0.57,179.000000,,2013-04-04 23:22:00,
2013-04-04 16:32:00,53.0,53.0,-100.00,WSW,256,0.0,0.0,100,0.00,,,0.57,179.000000,,2013-04-04 23:32:00,
2013-04-04 16:52:00,53.0,53.0,-100.00,WSW,255,0.0,0.0,100,0.00,,,0.57,184.000000,,2013-04-04 23:52:00,
2013-04-04 17:02:00,53.0,53.0,-100.00,WSW,255,0.0,0.0,100,0.00,,,0.57,184.000000,,2013-04-05 00:02:00,
2013-04-04 17:12:00,53.0,53.0,-100.00,WSW,255,0.0,0.0,100,0.00,,,0.57,184.000000,,2013-04-05 00:12:00,
2013-04-04 17:22:00,53.0,53.0,-100.00,WSW,255,0.0,0.0,100,0.00,,,0.57,184.000000,,2013-04-05 00:22:00,
2013-04-04 17:32:00,53.0,53.0,-100.00,WSW,255,0.0,0.0,100,0.00,,,0.57,184.000000,,2013-04-05 00:32:00,
2013-04-04 17:52:00,54.0,54.0,-100.00,WSW,248,0.0,0.0,100,0.00,,,0.57,121.000000,,2013-04-05 00:52:00,
2013-04-04 18:02:00,54.0,54.0,-100.00,WSW,248,0.0,0.0,100,0.00,,,0.57,121.000000,,2013-04-05 01:02:00,
2013-04-04 18:12:00,54.0,54.0,-100.00,WSW,248,0.0,0.0,100,0.00,,,0.57,121.000000,,2013-04-05 01:12:00,
2013-04-04 18:22:00,54.0,54.0,-100.00,WSW,248,0.0,0.0,100,0.00,,,0.57,121.000000,,2013-04-05 01:22:00,
2013-04-04 18:32:00,54.0,54.0,-100.00,WSW,248,0.0,0.0,100,0.00,,,0.57,121.000000,,2013-04-05 01:32:00,
2013-04-04 18:53:00,53.0,53.0,-100.00,WSW,250,0.0,0.0,100,0.00,,,0.57,77.000000,,2013-04-05 01:53:00,
2013-04-04 19:02:00,53.0,53.0,-100.00,WSW,250,0.0,0.0,100,0.00,,,0.57,77.000000,,2013-04-05 02:02:00,
2013-04-04 19:12:00,53.0,53.0,-100.00,WSW,250,0.0,0.0,100,0.00,,,0.57,77.000000,,2013-04-05 02:12:00,
2013-04-04 19:22:00,53.0,53.0,-100.00,WSW,250,0.0,0.0,100,0.00,,,0.57,77.000000,,2013-04-05 02:22:00,
2013-04-04 19:32:00,53.0,53.0,-100.00,WSW,250,0.0,0.0,100,0.00,,,0.57,77.000000,,2013-04-05 02:32:00,
2013-04-04 19:52:00,52.0,52.0,-100.00,West,274,0.0,0.0,100,0.00,,,0.57,18.000000,,2013-04-05 02:52:00,
2013-04-04 20:02:00,52.0,52.0,-100.00,West,274,0.0,0.0,100,0.00,,,0.57,18.000000,,2013-04-05 03:02:00,
2013-04-04 20:12:00,52.0,52.0,-100.00,West,274,0.0,0.0,100,0.00,,,0.57,18.000000,,2013-04-05 03:12:00,
2013-04-04 20:22:00,52.0,52.0,-100.00,West,274,0.0,0.0,100,0.00,,,0.57,18.000000,,2013-04-05 03:22:00,
2013-04-04 20:32:00,52.0,52.0,-100.00,West,274,0.0,0.0,100,0.00,,,0.57,18.000000,,2013-04-05 03:32:00,
2013-04-04 20:53:00,52.0,52.0,-100.00,WNW,282,0.0,0.0,100,0.00,,,0.57,1.000000,,2013-04-05 03:53:00,
2013-04-04 21:02:00,52.0,52.0,-100.00,WNW,282,0.0,0.0,100,0.00,,,0.57,1.000000,,2013-04-05 04:02:00,
2013-04-04 21:12:00,52.0,52.0,-100.00,WNW,282,0.0,0.0,100,0.00,,,0.57,1.000000,,2013-04-05 04:12:00,
2013-04-04 21:22:00,52.0,52.0,-100.00,WNW,282,0.0,0.0,100,0.00,,,0.57,1.000000,,2013-04-05 04:22:00,
2013-04-04 21:32:00,52.0,52.0,-100.00,WNW,282,0.0,0.0,100,0.00,,,0.57,1.000000,,2013-04-05 04:32:00,
2013-04-04 21:52:00,52.0,52.0,-100.00,West,277,0.0,0.0,100,0.00,,,0.57,0.000000,,2013-04-05 04:52:00,
2013-04-04 22:02:00,52.0,52.0,-100.00,West,277,0.0,0.0,100,0.00,,,0.57,0.000000,,2013-04-05 05:02:00,
2013-04-04 22:12:00,52.0,52.0,-100.00,West,277,0.0,0.0,100,0.00,,,0.57,0.000000,,2013-04-05 05:12:00,
2013-04-04 22:22:00,52.0,52.0,-100.00,West,277,0.0,0.0,100,0.00,,,0.57,0.000000,,2013-04-05 05:22:00,
2013-04-04 22:31:00,52.0,52.0,-100.00,West,277,0.0,0.0,100,0.00,,,0.57,0.000000,,2013-04-05 05:31:00,
2013-04-04 22:52:00,52.0,52.0,-100.00,West,267,0.0,0.0,100,0.00,,,0.57,0.000000,,2013-04-05 05:52:00,
2013-04-04 23:02:00,52.0,52.0,-100.00,West,267,0.0,0.0,100,0.00,,,0.57,0.000000,,2013-04-05 06:02:00,
2013-04-04 23:12:00,52.0,52.0,-100.00,West,267,0.0,0.0,100,0.00,,,0.57,0.000000,,2013-04-05 06:12:00,
2013-04-04 23:22:00,52.0,52.0,-100.00,West,267,0.0,0.0,100,0.00,,,0.57,0.000000,,2013-04-05 06:22:00,
2013-04-04 23:32:00,52.0,52.0,-100.00,West,267,0.0,0.0,100,0.00,,,0.57,0.000000,,2013-04-05 06:32:00,
2013-04-04 23:52:00,51.0,51.0,-100.00,West,278,0.0,0.0,100,0.00,,,0.57,0.000000,,2013-04-05 06:52:00,